WetterOnline ( https://www.wetteronline.de )

Wetter aktuell Ulm

Aktuelles Wetter: Ulm-Mähringen (592m)

6-stündlich | Neueste Meldungen
Ortszeit Temperatur Wetter
Do, 29.09. 2:00 5.6° C bedeckt
Mi, 28.09. 20:00 7.1° C wolkig
Mi, 28.09. 14:00 9.0° C bewölkt
Mi, 28.09. 8:00 7.9° C Sprühregen
Mi, 28.09. 2:00 7.4° C Regen
Di, 27.09. 20:00 7.0° C bedeckt
Di, 27.09. 14:00 9.5° C leicht bewölkt
Di, 27.09. 8:00 7.7° C leichter Regen
Ortszeit Temperatur Wetter
Do, 29.09. 6:00 4.9° C Nebel
Do, 29.09. 5:50 4.9° C Nebel
Do, 29.09. 5:40 4.9° C Nebel
Do, 29.09. 5:30 4.8° C Nebel
Do, 29.09. 5:20 4.8° C Nebel
Do, 29.09. 5:10 5.0° C Nebel
Do, 29.09. 5:00 5.1° C bewölkt
Do, 29.09. 4:30 5.4° C bedeckt
Do, 29.09. 4:00 5.6° C bedeckt
Do, 29.09. 3:30 5.8° C bedeckt
Do, 29.09. 3:00 5.2° C bedeckt
Ortszeit Relative Feuchte Sichtweite
Do, 29.09. 2:00 96% 26 km
Mi, 28.09. 20:00 90% 55 km
Mi, 28.09. 14:00 80% >70 km
Mi, 28.09. 8:00 94% 21 km
Mi, 28.09. 2:00 95% 40 km
Di, 27.09. 20:00 84% >70 km
Di, 27.09. 14:00 76% >70 km
Di, 27.09. 8:00 88% 28 km
Ortszeit Relative Feuchte Sichtweite
Do, 29.09. 6:00 99% 100 m
Do, 29.09. 5:50 99% -
Do, 29.09. 5:40 99% -
Do, 29.09. 5:30 99% 100 m
Do, 29.09. 5:20 99% -
Do, 29.09. 5:10 98% -
Do, 29.09. 5:00 97% 5.0 km
Do, 29.09. 4:30 97% 11 km
Do, 29.09. 4:00 97% 8 km
Do, 29.09. 3:30 98% 8 km
Do, 29.09. 3:00 97% 10 km
Ortszeit Niederschlagsmenge Niederschlagsart
Do, 29.09. 2:00 0.0 l/m2 in 6 Std. -
Mi, 28.09. 20:00 4 l/m2 in 12 Std. -
Mi, 28.09. 14:00 4 l/m2 in 6 Std. Regen
Mi, 28.09. 8:00 4 l/m2 in 12 Std. Regen
Mi, 28.09. 2:00 3 l/m2 in 6 Std. Regen
Di, 27.09. 20:00 4 l/m2 in 12 Std. Regen
Di, 27.09. 14:00 2 l/m2 in 6 Std. Regen
Di, 27.09. 8:00 3 l/m2 in 12 Std. Regen
Ortszeit Niederschlagsmenge Niederschlagsart
Do, 29.09. 6:00 0.0 l/m2 in 1 Std. -
Do, 29.09. 5:50 keine Meldung -
Do, 29.09. 5:40 keine Meldung -
Do, 29.09. 5:30 0.0 l/m2 in 1 Std. -
Do, 29.09. 5:20 keine Meldung -
Do, 29.09. 5:10 keine Meldung -
Do, 29.09. 5:00 0.0 l/m2 in 1 Std. -
Do, 29.09. 4:30 0.0 l/m2 in 1 Std. -
Do, 29.09. 4:00 0.0 l/m2 in 1 Std. -
Do, 29.09. 3:30 0.0 l/m2 in 1 Std. -
Do, 29.09. 3:00 0.0 l/m2 in 1 Std. -
Ortszeit Stärke Spitze Richtung
km/h Bft. km/h Grad Sektor
Do, 29.09. 2:00 7 2 11 210° SW
Mi, 28.09. 20:00 9 2 24 250° W
Mi, 28.09. 14:00 9 2 33 250° W
Mi, 28.09. 8:00 14 3 40 220° SW
Mi, 28.09. 2:00 13 3 30 220° SW
Di, 27.09. 20:00 14 3 54 240° SW
Di, 27.09. 14:00 18 3 43 240° SW
Di, 27.09. 8:00 14 3 40 250° W
Ortszeit Stärke Spitze Richtung
km/h Bft. km/h Grad Sektor
Do, 29.09. 6:00 4 1 7 150° SO
Do, 29.09. 5:50 4 1 - 150° SO
Do, 29.09. 5:40 4 1 - 80° O
Do, 29.09. 5:30 4 1 7 20° N
Do, 29.09. 5:20 4 1 - 20° N
Do, 29.09. 5:10 4 1 - 10° N
Do, 29.09. 5:00 2 1 6 300° NW
Do, 29.09. 4:30 4 1 4 210° SW
Do, 29.09. 4:00 4 1 7 220° SW
Do, 29.09. 3:30 4 1 4 190° S
Do, 29.09. 3:00 4 1 7 260° W
Ortszeit Untergrenze Bedeckung Gattung
total tief tief mittel hoch
Do, 29.09. 2:00 2400 m 8/8 8/8 - - -
Mi, 28.09. 20:00 1800 m 8/8 2/8 - - -
Mi, 28.09. 14:00 540 m 8/8 7/8 - - -
Mi, 28.09. 8:00 270 m 8/8 8/8 - - -
Mi, 28.09. 2:00 240 m 8/8 8/8 - - -
Di, 27.09. 20:00 990 m 8/8 8/8 - - -
Di, 27.09. 14:00 510 m 6/8 1/8 - - -
Di, 27.09. 8:00 570 m 8/8 8/8 - - -
Ortszeit Bedeckungsgrad in Achtel und Wolkenuntergrenze
Do, 29.09. 6:00 7(<30m) 8(1500m) 8(6000m)
Do, 29.09. 5:50 7(<30m) 8(1500m) 8(6000m)
Do, 29.09. 5:40 7
Do, 29.09. 5:30 2(<30m) 6(2700m) 6(4800m)
Do, 29.09. 5:20 2(<30m) 6(2700m) 6(4800m)
Do, 29.09. 5:10 7
Do, 29.09. 5:00 2(210m) 7(2700m) 7(4800m)
Do, 29.09. 4:30 3(90m) 8(2700m) 8(4800m)
Do, 29.09. 4:00 8(120m) 8(2400m)
Do, 29.09. 3:30 7(180m) 7(1800m) 8(2400m)
Do, 29.09. 3:00 6(180m) 8(2400m)
Ortszeit Luftdruck NN (hPa) Tendenz (hPa in 3 Std.)
Do, 29.09. 2:00 1003 - 0,3
Mi, 28.09. 20:00 1001 + 0,4
Mi, 28.09. 14:00 1000 + 0,7
Mi, 28.09. 8:00 997 - 1,5
Mi, 28.09. 2:00 1002 - 1,9
Di, 27.09. 20:00 1004 + 0,5
Di, 27.09. 14:00 1003 - 0,2
Di, 27.09. 8:00 1001 + 1,5
Ortszeit Luftdruck NN (hPa) Tendenz (hPa in 3 Std.)
Do, 29.09. 6:00 1003 - 0,4
Do, 29.09. 5:50 1003 keine Meldung
Do, 29.09. 5:40 1003 keine Meldung
Do, 29.09. 5:30 1003 - 0,4
Do, 29.09. 5:20 1003 keine Meldung
Do, 29.09. 5:10 1002 keine Meldung
Do, 29.09. 5:00 1003 - 0,4
Do, 29.09. 4:30 1003 - 0,3
Do, 29.09. 4:00 1003 - 0,5
Do, 29.09. 3:30 1003 - 0,5
Do, 29.09. 3:00 1003 - 0,3
Ortszeit Schneehöhe (cm)
Do, 29.09. 2:00 0
Mi, 28.09. 20:00 0
Mi, 28.09. 14:00 0
Mi, 28.09. 8:00 0
Mi, 28.09. 2:00 0
Di, 27.09. 20:00 0
Di, 27.09. 14:00 0
Di, 27.09. 8:00 0
Ortszeit Schneehöhe (cm)
Do, 29.09. 6:00 0
Do, 29.09. 5:50 0
Do, 29.09. 5:40 0
Do, 29.09. 5:30 0
Do, 29.09. 5:20 0
Do, 29.09. 5:10 0
Do, 29.09. 5:00 0
Do, 29.09. 4:30 0
Do, 29.09. 4:00 0
Do, 29.09. 3:30 0
Do, 29.09. 3:00 0
Link zu dieser Seite / Seite empfehlen

Das Wetter in ...